Weather History for Wichita, KS

Change the Weather History Date:

Monday, August 18, 2014

  Actual Average Record
Temperature  
Mean Temperature 80 °F 80 °F  
Max Temperature 93 °F 91 °F 106 °F (1970)
Min Temperature 67 °F 69 °F 54 °F (1943)
Degree Days  
Heating Degree Days 0 0  
Month to date heating degree days 0 0  
Since 1 June heating degree days 1 6  
Since 1 July heating degree days 1 0  
Cooling Degree Days 15 15  
Month to date cooling degree days 258 284  
Year to date cooling degree days 1250 1246  
Since 1 June cooling degree days 983 1110  
Growing Degree Days 30 (Base 50)    
Moisture  
Dew Point 66 °F    
Average Humidity 69    
Maximum Humidity 90    
Minimum Humidity 47    
Precipitation  
Precipitation 0.31 in 0.13 in 1.70 in (1963)
Month to date precipitation 2.11 2.11  
Year to date precipitation 21.71 22.49  
Snow  
Snow 0.00 in 0.00 in 0.00 in (2007)
Month to date snowfall 0.0 0.0  
Since 1 June snowfall 0.0 0.0  
Since 1 July snowfall 0.0 0.0  
Snow Depth 0.00 in    
Sea Level Pressure  
Sea Level Pressure 29.85 in    
Wind  
Wind Speed 8 mph (South)    
Max Wind Speed 22 mph    
Max Gust Speed 28 mph    
Visibility 9 miles    
Events Rain , Thunderstorm    
T = Trace of Precipitation, MM = Missing Value Source: NWS Daily Summary

Daily Weather History Graph

Daily Weather History Graph

Search for Another Location

Airport:

Trip Planner

Search our weather history database for the weather conditions in past years. The results will help you decide how hot, cold, wet, or windy it might be!

Date:

Astronomy

Aug. 18, 2014 Rise Set
Actual Time 6:48 AM CDT 8:18 PM CDT
Civil Twilight 6:20 AM CDT 8:45 PM CDT
Nautical Twilight 5:47 AM CDT 9:19 PM CDT
Astronomical Twilight 5:11 AM CDT 9:54 PM CDT
Moon 12:57 AM CDT (8/18) 3:21 PM CDT (8/18)
Length of Visible Light 14h 25m
Length of Day
13h 30m
Last Quarter, 38% of the Moon is Illuminated
Aug 18
Last Quarter
Aug 25
New
Sep 2
First Quarter
Sep 8
Full
Sep 15
Last Quarter

Hourly Weather History & Observations

Time (CDT) Temp. Heat Index Dew Point Humidity Pressure Visibility Wind Dir Wind Speed Gust Speed Precip Events Conditions
12:29 AM 75.9 °F - 63.0 °F 64% 29.99 in 7.0 mi North 29.9 mph 42.6 mph N/A Thunderstorm Thunderstorm
12:53 AM 73.4 °F - 64.4 °F 73% 30.03 in 8.0 mi North 23.0 mph 34.5 mph N/A Rain , Thunderstorm Light Thunderstorms and Rain
1:33 AM 71.1 °F - 66.9 °F 87% 30.03 in 2.0 mi NE 12.7 mph - 0.16 in Rain , Thunderstorm Heavy Thunderstorms and Rain
1:45 AM 70.0 °F - 66.0 °F 87% 30.01 in 3.0 mi ENE 13.8 mph - 0.26 in Rain , Thunderstorm Thunderstorms and Rain
1:53 AM 69.8 °F - 64.4 °F 83% 30.00 in 4.0 mi ENE 12.7 mph 19.6 mph N/A Rain , Thunderstorm Light Thunderstorms and Rain
2:53 AM 70.0 °F - 66.9 °F 90% 29.89 in 10.0 mi South 9.2 mph - 0.00 in Rain , Thunderstorm Light Thunderstorms and Rain
3:53 AM 70.0 °F - 64.0 °F 81% 29.85 in 10.0 mi South 9.2 mph - 0.00 in   Overcast
4:53 AM 69.1 °F - 64.0 °F 84% 29.86 in 10.0 mi Variable 3.5 mph - N/A   Overcast
5:53 AM 68.0 °F - 64.0 °F 87% 29.85 in 10.0 mi SW 4.6 mph - N/A   Mostly Cloudy
6:53 AM 68.0 °F - 64.9 °F 90% 29.83 in 10.0 mi WSW 6.9 mph - N/A   Mostly Cloudy
7:53 AM 71.1 °F - 66.0 °F 84% 29.85 in 10.0 mi West 5.8 mph - N/A   Mostly Cloudy
8:53 AM 73.9 °F - 66.0 °F 76% 29.84 in 10.0 mi WSW 5.8 mph - N/A   Scattered Clouds
9:53 AM 78.1 °F - 66.0 °F 66% 29.84 in 10.0 mi SSW 3.5 mph - N/A   Mostly Cloudy
10:53 AM 81.0 °F 83.0 °F 66.0 °F 60% 29.84 in 10.0 mi SSW 5.8 mph - N/A   Mostly Cloudy
11:53 AM 82.9 °F 85.8 °F 68.0 °F 60% 29.85 in 10.0 mi SSW 6.9 mph - N/A   Mostly Cloudy
12:53 PM 86.0 °F 90.1 °F 69.1 °F 57% 29.84 in 10.0 mi Variable 5.8 mph - N/A   Mostly Cloudy
1:53 PM 89.1 °F 95.0 °F 71.1 °F 55% 29.83 in 10.0 mi South 5.8 mph - N/A   Mostly Cloudy
2:53 PM 90.0 °F 96.9 °F 72.0 °F 55% 29.81 in 10.0 mi SSE 9.2 mph - N/A   Scattered Clouds
3:53 PM 90.0 °F 96.4 °F 71.1 °F 54% 29.79 in 10.0 mi SSE 9.2 mph - N/A   Scattered Clouds
4:53 PM 91.9 °F 97.4 °F 70.0 °F 48% 29.76 in 10.0 mi ESE 8.1 mph - N/A   Scattered Clouds
5:53 PM 91.9 °F 95.9 °F 68.0 °F 45% 29.74 in 10.0 mi SE 13.8 mph - N/A   Scattered Clouds
6:53 PM 90.0 °F 96.4 °F 71.1 °F 54% 29.75 in 10.0 mi SSE 13.8 mph - N/A   Scattered Clouds
7:53 PM 84.0 °F 84.9 °F 63.0 °F 49% 29.75 in 10.0 mi South 12.7 mph - N/A   Scattered Clouds
8:53 PM 79.0 °F - 63.0 °F 58% 29.75 in 10.0 mi SSE 6.9 mph - N/A   Mostly Cloudy
9:53 PM 77.0 °F - 63.0 °F 62% 29.79 in 10.0 mi South 10.4 mph - N/A   Mostly Cloudy
10:53 PM 73.4 °F - 60.8 °F 65% 29.82 in 10.0 mi South 9.2 mph - N/A   Scattered Clouds
11:53 PM 72.0 °F - 61.0 °F 68% 29.77 in 10.0 mi SSW 4.6 mph - N/A   Mostly Cloudy